Location: *
(45.0500°N, 12.0500°E)
Time: 12:50:15
(UTC+00:00)

Cosmos 2369 Rocket - Pass Details

Date: 09 April 2020
Orbit: 829 x 852 km, 71.0° (Epoch: 24 May)

Event Time Altitude Azimuth Distance (km) Brightness Sun altitude
Rises 18:44:04 0° 325° (NW) 3,419 6.4 -9.9°
Reaches altitude 10° 18:46:48 10° 314° (NW) 2,476 5.9 -10.4°
Maximum altitude 18:51:36 29° 257° (WSW) 1,504 4.2 -11.1°
Drops below altitude 10° 18:56:21 10° 199° (SSW) 2,448 4.6 -11.9°
Sets 18:59:03 0° 188° (S) 3,373 5.2 -12.3°
